Location: Trebic
(49.2170°N, 15.8830°E)
Time: 03:44:22
(UTC+02:00)

Courier 1B Rocket - Pass Details

Date: 29 August 2019
Orbit: 920 x 1202 km, 28.2° (Epoch: 22 October)

Event Time Altitude Azimuth Distance (km) Brightness Sun altitude
Rises 03:01:27 0° 226° (SW) 3,766 - -25.3°
Reaches altitude 10° 03:05:57 10° 199° (SSW) 2,884 - -24.9°
Maximum altitude 03:08:46 13° 175° (S) 2,729 - -24.6°
Drops below altitude 10° 03:11:39 10° 152° (SSE) 2,969 - -24.3°
Exits shadow 03:11:50 10° 150° (SSE) 2,997 7.3 -24.3°
Sets 03:16:27 0° 126° (SE) 3,992 8.2 -23.9°
